Data supplied by UK-AIR on 21/3/2019
All Data GMT hour ending 
Status: R =Ratified P=Provisional,P*=As supplied
,,Luton A505 Roadside,,,,,,,,,,,,,,,,,,,,,,,
Date,time,"Nitric oxide",status,unit,"Nitrogen dioxide",status,unit,"Nitrogen oxides as nitrogen dioxide",status,unit
 
01-01-2018,01:00,2.47681,R,ugm-3,6.03632,R,ugm-3,9.83405,R,ugm-3
01-01-2018,02:00,2.62542,R,ugm-3,4.89366,R,ugm-3,8.91925,R,ugm-3
01-01-2018,03:00,2.08052,R,ugm-3,3.61370,R,ugm-3,6.80379,R,ugm-3
01-01-2018,04:00,2.00622,R,ugm-3,2.46979,R,ugm-3,5.54595,R,ugm-3
01-01-2018,05:00,1.70900,R,ugm-3,1.15324,R,ugm-3,3.81165,R,ugm-3
01-01-2018,06:00,2.74926,R,ugm-3,2.24526,R,ugm-3,6.46074,R,ugm-3
01-01-2018,07:00,1.33748,R,ugm-3,1.66558,R,ugm-3,3.71636,R,ugm-3
01-01-2018,08:00,2.97218,R,ugm-3,2.30369,R,ugm-3,6.86096,R,ugm-3
01-01-2018,09:00,3.38085,R,ugm-3,10.76784,R,ugm-3,15.95174,R,ugm-3
01-01-2018,10:00,9.69673,R,ugm-3,21.83804,R,ugm-3,36.70615,R,ugm-3
01-01-2018,11:00,17.87021,R,ugm-3,38.46463,R,ugm-3,65.86524,R,ugm-3
01-01-2018,12:00,21.77120,R,ugm-3,35.74217,R,ugm-3,69.12420,R,ugm-3
01-01-2018,13:00,24.00033,R,ugm-3,41.35781,R,ugm-3,78.15780,R,ugm-3
01-01-2018,14:00,42.27922,R,ugm-3,58.72728,R,ugm-3,123.55451,R,ugm-3
01-01-2018,15:00,22.10557,R,ugm-3,34.77208,R,ugm-3,68.66680,R,ugm-3
01-01-2018,16:00,27.56694,R,ugm-3,43.03592,R,ugm-3,85.30464,R,ugm-3
01-01-2018,17:00,15.78969,R,ugm-3,37.99554,R,ugm-3,62.20606,R,ugm-3
01-01-2018,18:00,15.49247,R,ugm-3,26.38741,R,ugm-3,50.14220,R,ugm-3
01-01-2018,19:00,10.14255,R,ugm-3,25.84278,R,ugm-3,41.39448,R,ugm-3
01-01-2018,20:00,7.46759,R,ugm-3,16.85132,R,ugm-3,28.30147,R,ugm-3
01-01-2018,21:00,8.50786,R,ugm-3,17.65761,R,ugm-3,30.70281,R,ugm-3
01-01-2018,22:00,11.33142,R,ugm-3,14.64322,R,ugm-3,32.01783,R,ugm-3
01-01-2018,23:00,5.01555,R,ugm-3,15.97992,R,ugm-3,23.67032,R,ugm-3
01-01-2018,24:00,5.60998,R,ugm-3,10.20862,R,ugm-3,18.81047,R,ugm-3
02-01-2018,01:00,2.47390,R,ugm-3,8.47015,R,ugm-3,12.26341,R,ugm-3
02-01-2018,02:00,2.27599,R,ugm-3,6.64084,R,ugm-3,10.13064,R,ugm-3
02-01-2018,03:00,2.89447,R,ugm-3,5.61635,R,ugm-3,10.05447,R,ugm-3
02-01-2018,04:00,2.85736,R,ugm-3,7.10145,R,ugm-3,11.48267,R,ugm-3
02-01-2018,05:00,2.82025,R,ugm-3,9.67196,R,ugm-3,13.99629,R,ugm-3
02-01-2018,06:00,11.50365,R,ugm-3,19.77996,R,ugm-3,37.41864,R,ugm-3
02-01-2018,07:00,22.48778,R,ugm-3,27.61702,R,ugm-3,62.09780,R,ugm-3
02-01-2018,08:00,73.10384,R,ugm-3,69.51794,R,ugm-3,181.60894,R,ugm-3
02-01-2018,09:00,85.46099,R,ugm-3,63.36718,R,ugm-3,194.40554,R,ugm-3
02-01-2018,10:00,60.19007,R,ugm-3,66.63910,R,ugm-3,158.92924,R,ugm-3
02-01-2018,11:00,69.13323,R,ugm-3,73.26390,R,ugm-3,179.26670,R,ugm-3
02-01-2018,12:00,53.73318,R,ugm-3,76.19675,R,ugm-3,158.58648,R,ugm-3
02-01-2018,13:00,27.90563,R,ugm-3,47.47372,R,ugm-3,90.26176,R,ugm-3
02-01-2018,14:00,,,,,,,,,
02-01-2018,15:00,7.42171,R,ugm-3,19.69767,R,ugm-3,31.07747,R,ugm-3
02-01-2018,16:00,14.24968,R,ugm-3,19.33986,R,ugm-3,41.18907,R,ugm-3
02-01-2018,17:00,17.62656,R,ugm-3,28.50110,R,ugm-3,55.52812,R,ugm-3
02-01-2018,18:00,15.62270,R,ugm-3,25.97513,R,ugm-3,49.92961,R,ugm-3
02-01-2018,19:00,12.24582,R,ugm-3,21.04134,R,ugm-3,39.81800,R,ugm-3
02-01-2018,20:00,7.16195,R,ugm-3,13.52628,R,ugm-3,24.50778,R,ugm-3
02-01-2018,21:00,5.71472,R,ugm-3,11.86065,R,ugm-3,20.62310,R,ugm-3
02-01-2018,22:00,3.74796,R,ugm-3,8.76364,R,ugm-3,14.51043,R,ugm-3
02-01-2018,23:00,2.00386,R,ugm-3,6.75342,R,ugm-3,9.82596,R,ugm-3
02-01-2018,24:00,2.48627,R,ugm-3,3.84288,R,ugm-3,7.65511,R,ugm-3
03-01-2018,01:00,2.07992,R,ugm-3,5.34158,R,ugm-3,8.53075,R,ugm-3
03-01-2018,02:00,2.03040,R,ugm-3,3.20866,R,ugm-3,6.32189,R,ugm-3
03-01-2018,03:00,0.85426,R,ugm-3,2.63182,R,ugm-3,3.94166,R,ugm-3
03-01-2018,04:00,2.78561,R,ugm-3,3.32649,R,ugm-3,7.59770,R,ugm-3
03-01-2018,05:00,2.78561,R,ugm-3,5.72576,R,ugm-3,9.99697,R,ugm-3
03-01-2018,06:00,8.72825,R,ugm-3,12.49474,R,ugm-3,25.87787,R,ugm-3
03-01-2018,07:00,16.26797,R,ugm-3,36.40896,R,ugm-3,61.35283,R,ugm-3
03-01-2018,08:00,16.86223,R,ugm-3,19.44549,R,ugm-3,45.30055,R,ugm-3
03-01-2018,09:00,16.63938,R,ugm-3,29.49853,R,ugm-3,55.01190,R,ugm-3
03-01-2018,10:00,14.67089,R,ugm-3,27.20418,R,ugm-3,49.69922,R,ugm-3
03-01-2018,11:00,14.44804,R,ugm-3,19.71968,R,ugm-3,41.87302,R,ugm-3
03-01-2018,12:00,14.22519,R,ugm-3,18.06198,R,ugm-3,39.87363,R,ugm-3
03-01-2018,13:00,13.89091,R,ugm-3,21.08805,R,ugm-3,42.38715,R,ugm-3
03-01-2018,14:00,19.27643,R,ugm-3,21.85621,R,ugm-3,51.41299,R,ugm-3
03-01-2018,15:00,18.49646,R,ugm-3,29.62158,R,ugm-3,57.98242,R,ugm-3
03-01-2018,16:00,25.10764,R,ugm-3,40.33540,R,ugm-3,78.83325,R,ugm-3
03-01-2018,17:00,14.55946,R,ugm-3,24.11887,R,ugm-3,46.44306,R,ugm-3
03-01-2018,18:00,10.73389,R,ugm-3,26.67139,R,ugm-3,43.12978,R,ugm-3
03-01-2018,19:00,11.14244,R,ugm-3,20.96077,R,ugm-3,38.04561,R,ugm-3
03-01-2018,20:00,8.24541,R,ugm-3,22.48942,R,ugm-3,35.13221,R,ugm-3
03-01-2018,21:00,4.15985,R,ugm-3,15.78637,R,ugm-3,22.16471,R,ugm-3
03-01-2018,22:00,7.24259,R,ugm-3,10.20268,R,ugm-3,21.30783,R,ugm-3
03-01-2018,23:00,4.12270,R,ugm-3,12.53004,R,ugm-3,18.85143,R,ugm-3
03-01-2018,24:00,3.82557,R,ugm-3,9.67235,R,ugm-3,15.53815,R,ugm-3
04-01-2018,01:00,1.73481,R,ugm-3,5.03262,R,ugm-3,7.69262,R,ugm-3
04-01-2018,02:00,1.04088,R,ugm-3,4.26867,R,ugm-3,5.86467,R,ugm-3
04-01-2018,03:00,1.82155,R,ugm-3,4.69017,R,ugm-3,7.48316,R,ugm-3
04-01-2018,04:00,3.27135,R,ugm-3,4.80922,R,ugm-3,9.82522,R,ugm-3
04-01-2018,05:00,6.72857,R,ugm-3,13.73195,R,ugm-3,24.04895,R,ugm-3
04-01-2018,06:00,138.80926,R,ugm-3,91.05852,R,ugm-3,303.89642,R,ugm-3
04-01-2018,07:00,160.48195,R,ugm-3,125.63300,R,ugm-3,371.70188,R,ugm-3
04-01-2018,08:00,126.35583,R,ugm-3,82.56291,R,ugm-3,276.30582,R,ugm-3
04-01-2018,09:00,100.25940,R,ugm-3,88.93122,R,ugm-3,242.66015,R,ugm-3
04-01-2018,10:00,65.38979,R,ugm-3,78.24763,R,ugm-3,178.51059,R,ugm-3
04-01-2018,11:00,12.15603,R,ugm-3,22.43272,R,ugm-3,41.07172,R,ugm-3
04-01-2018,12:00,13.15974,R,ugm-3,21.52208,R,ugm-3,41.70007,R,ugm-3
04-01-2018,13:00,11.78429,R,ugm-3,10.66407,R,ugm-3,28.73306,R,ugm-3
04-01-2018,14:00,7.24901,R,ugm-3,18.07506,R,ugm-3,29.19005,R,ugm-3
04-01-2018,15:00,9.21926,R,ugm-3,16.82488,R,ugm-3,30.96088,R,ugm-3
04-01-2018,16:00,16.05935,R,ugm-3,19.81801,R,ugm-3,44.44200,R,ugm-3
04-01-2018,17:00,17.50915,R,ugm-3,21.36515,R,ugm-3,48.21214,R,ugm-3
04-01-2018,18:00,11.97016,R,ugm-3,25.00266,R,ugm-3,43.35665,R,ugm-3
04-01-2018,19:00,13.79171,R,ugm-3,28.60748,R,ugm-3,49.75447,R,ugm-3
04-01-2018,20:00,10.66906,R,ugm-3,26.54067,R,ugm-3,42.89966,R,ugm-3
04-01-2018,21:00,6.69139,R,ugm-3,18.07321,R,ugm-3,28.33320,R,ugm-3
04-01-2018,22:00,5.83638,R,ugm-3,13.67187,R,ugm-3,22.62086,R,ugm-3
04-01-2018,23:00,5.09289,R,ugm-3,11.49871,R,ugm-3,19.30771,R,ugm-3
04-01-2018,24:00,11.74712,R,ugm-3,25.28754,R,ugm-3,43.29953,R,ugm-3
05-01-2018,01:00,23.46543,R,ugm-3,43.60909,R,ugm-3,79.58892,R,ugm-3
05-01-2018,02:00,10.41806,R,ugm-3,11.59638,R,ugm-3,27.57052,R,ugm-3
05-01-2018,03:00,4.91137,R,ugm-3,12.86162,R,ugm-3,20.39228,R,ugm-3
05-01-2018,04:00,4.27885,R,ugm-3,9.26178,R,ugm-3,15.82258,R,ugm-3
05-01-2018,05:00,3.79515,R,ugm-3,7.37586,R,ugm-3,13.19501,R,ugm-3
05-01-2018,06:00,22.51045,R,ugm-3,24.37646,R,ugm-3,58.89199,R,ugm-3
05-01-2018,07:00,54.09948,R,ugm-3,53.51125,R,ugm-3,136.46263,R,ugm-3
05-01-2018,08:00,94.61828,R,ugm-3,86.37590,R,ugm-3,231.45524,R,ugm-3
05-01-2018,09:00,83.41887,R,ugm-3,67.16186,R,ugm-3,195.06901,R,ugm-3
05-01-2018,10:00,135.50916,R,ugm-3,96.39276,R,ugm-3,304.17057,R,ugm-3
05-01-2018,11:00,36.09113,R,ugm-3,48.50745,R,ugm-3,103.84640,R,ugm-3
05-01-2018,12:00,18.19439,R,ugm-3,21.74067,R,ugm-3,49.63835,R,ugm-3
05-01-2018,13:00,10.23202,R,ugm-3,16.01341,R,ugm-3,31.70229,R,ugm-3
05-01-2018,14:00,12.76212,R,ugm-3,14.70443,R,ugm-3,34.27274,R,ugm-3
05-01-2018,15:00,19.49665,R,ugm-3,25.22755,R,ugm-3,55.12199,R,ugm-3
05-01-2018,16:00,40.10952,R,ugm-3,55.25540,R,ugm-3,116.75580,R,ugm-3
05-01-2018,17:00,96.99955,R,ugm-3,84.78103,R,ugm-3,233.51160,R,ugm-3
05-01-2018,18:00,90.00457,R,ugm-3,89.62303,R,ugm-3,227.62812,R,ugm-3
05-01-2018,19:00,70.09864,R,ugm-3,90.84184,R,ugm-3,198.32492,R,ugm-3
05-01-2018,20:00,112.21736,R,ugm-3,99.94710,R,ugm-3,272.01131,R,ugm-3
05-01-2018,21:00,119.47279,R,ugm-3,97.21908,R,ugm-3,280.40814,R,ugm-3
05-01-2018,22:00,133.83483,R,ugm-3,104.67216,R,ugm-3,309.88269,R,ugm-3
05-01-2018,23:00,220.11866,R,ugm-3,115.34657,R,ugm-3,452.85714,R,ugm-3
05-01-2018,24:00,139.04385,R,ugm-3,99.19843,R,ugm-3,312.39603,R,ugm-3
06-01-2018,01:00,161.17593,R,ugm-3,85.52855,R,ugm-3,332.66152,R,ugm-3
06-01-2018,02:00,149.30869,R,ugm-3,78.13538,R,ugm-3,307.07218,R,ugm-3
06-01-2018,03:00,90.94076,R,ugm-3,64.30321,R,ugm-3,203.74376,R,ugm-3
06-01-2018,04:00,94.21791,R,ugm-3,69.38840,R,ugm-3,213.85384,R,ugm-3
06-01-2018,05:00,79.99212,R,ugm-3,66.46840,R,ugm-3,189.12128,R,ugm-3
06-01-2018,06:00,112.61460,R,ugm-3,71.91059,R,ugm-3,244.58390,R,ugm-3
06-01-2018,07:00,151.23277,R,ugm-3,77.52704,R,ugm-3,309.41406,R,ugm-3
06-01-2018,08:00,118.38685,R,ugm-3,86.19317,R,ugm-3,267.71713,R,ugm-3
06-01-2018,09:00,105.53895,R,ugm-3,66.76643,R,ugm-3,228.59056,R,ugm-3
06-01-2018,10:00,110.34295,R,ugm-3,88.24554,R,ugm-3,257.43570,R,ugm-3
06-01-2018,11:00,136.07598,R,ugm-3,72.72167,R,ugm-3,281.36859,R,ugm-3
06-01-2018,12:00,111.83256,R,ugm-3,72.82411,R,ugm-3,244.29831,R,ugm-3
06-01-2018,13:00,111.19947,R,ugm-3,63.17068,R,ugm-3,233.67416,R,ugm-3
06-01-2018,14:00,110.56639,R,ugm-3,74.02300,R,ugm-3,243.55576,R,ugm-3
06-01-2018,15:00,70.60757,R,ugm-3,69.09132,R,ugm-3,177.35475,R,ugm-3
06-01-2018,16:00,70.86825,R,ugm-3,39.84648,R,ugm-3,148.50961,R,ugm-3
06-01-2018,17:00,51.80123,R,ugm-3,50.28999,R,ugm-3,129.71743,R,ugm-3
06-01-2018,18:00,57.61071,R,ugm-3,51.49232,R,ugm-3,139.82751,R,ugm-3
06-01-2018,19:00,69.30416,R,ugm-3,50.92682,R,ugm-3,157.19171,R,ugm-3
06-01-2018,20:00,49.97645,R,ugm-3,50.23199,R,ugm-3,126.86148,R,ugm-3
06-01-2018,21:00,27.25988,R,ugm-3,36.62659,R,ugm-3,78.42450,R,ugm-3
06-01-2018,22:00,24.01998,R,ugm-3,35.71111,R,ugm-3,72.54123,R,ugm-3
06-01-2018,23:00,29.19638,R,ugm-3,32.34360,R,ugm-3,77.11076,R,ugm-3
06-01-2018,24:00,23.08897,R,ugm-3,30.91266,R,ugm-3,66.31525,R,ugm-3
07-01-2018,01:00,14.56140,R,ugm-3,21.31016,R,ugm-3,43.63733,R,ugm-3
07-01-2018,02:00,7.05706,R,ugm-3,9.20833,R,ugm-3,20.02900,R,ugm-3
07-01-2018,03:00,8.46102,R,ugm-3,8.84529,R,ugm-3,21.81867,R,ugm-3
07-01-2018,04:00,10.92105,R,ugm-3,11.01345,R,ugm-3,27.75883,R,ugm-3
07-01-2018,05:00,8.90830,R,ugm-3,11.56824,R,ugm-3,23.91295,R,ugm-3
07-01-2018,06:00,13.38108,R,ugm-3,13.35296,R,ugm-3,33.87034,R,ugm-3
07-01-2018,07:00,10.88378,R,ugm-3,14.84032,R,ugm-3,31.52854,R,ugm-3
07-01-2018,08:00,17.07113,R,ugm-3,19.40394,R,ugm-3,45.57931,R,ugm-3
07-01-2018,09:00,21.87937,R,ugm-3,28.30973,R,ugm-3,61.85763,R,ugm-3
07-01-2018,10:00,33.43407,R,ugm-3,28.81307,R,ugm-3,80.07793,R,ugm-3
07-01-2018,11:00,28.10400,R,ugm-3,33.84430,R,ugm-3,76.93650,R,ugm-3
07-01-2018,12:00,38.05595,R,ugm-3,35.03454,R,ugm-3,93.38618,R,ugm-3
07-01-2018,13:00,34.10499,R,ugm-3,39.20773,R,ugm-3,91.50132,R,ugm-3
07-01-2018,14:00,41.48508,R,ugm-3,41.88539,R,ugm-3,105.49497,R,ugm-3
07-01-2018,15:00,54.00888,R,ugm-3,43.35883,R,ugm-3,126.17129,R,ugm-3
07-01-2018,16:00,54.67980,R,ugm-3,63.74895,R,ugm-3,147.59014,R,ugm-3
07-01-2018,17:00,47.37425,R,ugm-3,59.12925,R,ugm-3,131.76875,R,ugm-3
07-01-2018,18:00,56.31982,R,ugm-3,51.46729,R,ugm-3,137.82315,R,ugm-3
07-01-2018,19:00,57.62438,R,ugm-3,63.80334,R,ugm-3,152.15950,R,ugm-3
07-01-2018,20:00,37.08685,R,ugm-3,39.20497,R,ugm-3,96.07067,R,ugm-3
07-01-2018,21:00,34.44045,R,ugm-3,44.34795,R,ugm-3,97.15589,R,ugm-3
07-01-2018,22:00,41.14962,R,ugm-3,55.65088,R,ugm-3,118.74609,R,ugm-3
07-01-2018,23:00,38.54050,R,ugm-3,37.77570,R,ugm-3,96.87031,R,ugm-3
07-01-2018,24:00,21.65574,R,ugm-3,22.54112,R,ugm-3,55.74612,R,ugm-3
08-01-2018,01:00,17.26031,R,ugm-3,22.19635,R,ugm-3,48.66179,R,ugm-3
08-01-2018,02:00,13.52970,R,ugm-3,20.45355,R,ugm-3,41.19879,R,ugm-3
08-01-2018,03:00,8.80425,R,ugm-3,18.08481,R,ugm-3,31.58447,R,ugm-3
08-01-2018,04:00,13.65405,R,ugm-3,21.27190,R,ugm-3,42.20782,R,ugm-3
08-01-2018,05:00,23.54018,R,ugm-3,21.53437,R,ugm-3,57.62881,R,ugm-3
08-01-2018,06:00,97.48095,R,ugm-3,59.79982,R,ugm-3,209.26853,R,ugm-3
08-01-2018,07:00,175.78655,R,ugm-3,99.59717,R,ugm-3,369.13278,R,ugm-3
08-01-2018,08:00,151.98523,R,ugm-3,80.69069,R,ugm-3,313.73145,R,ugm-3
08-01-2018,09:00,168.73568,R,ugm-3,85.39207,R,ugm-3,344.11651,R,ugm-3
08-01-2018,10:00,183.06124,R,ugm-3,82.73131,R,ugm-3,363.42131,R,ugm-3
08-01-2018,11:00,133.92905,R,ugm-3,81.18980,R,ugm-3,286.54482,R,ugm-3
08-01-2018,12:00,156.42466,R,ugm-3,83.13625,R,ugm-3,322.98405,R,ugm-3
08-01-2018,13:00,154.07437,R,ugm-3,83.65578,R,ugm-3,319.89985,R,ugm-3
08-01-2018,14:00,177.53993,R,ugm-3,66.35228,R,ugm-3,338.57638,R,ugm-3
08-01-2018,15:00,171.79479,R,ugm-3,75.61830,R,ugm-3,339.03330,R,ugm-3
08-01-2018,16:00,156.20082,R,ugm-3,75.25493,R,ugm-3,314.75952,R,ugm-3
08-01-2018,17:00,204.81073,R,ugm-3,77.59727,R,ugm-3,391.63601,R,ugm-3
08-01-2018,18:00,198.65521,R,ugm-3,77.21185,R,ugm-3,381.81226,R,ugm-3
08-01-2018,19:00,131.98913,R,ugm-3,70.17118,R,ugm-3,272.55170,R,ugm-3
08-01-2018,20:00,88.90054,R,ugm-3,67.24480,R,ugm-3,203.55705,R,ugm-3
08-01-2018,21:00,26.59928,R,ugm-3,49.79904,R,ugm-3,90.58403,R,ugm-3
08-01-2018,22:00,27.60655,R,ugm-3,39.63025,R,ugm-3,81.95970,R,ugm-3
08-01-2018,23:00,22.27177,R,ugm-3,42.89826,R,ugm-3,77.04783,R,ugm-3
08-01-2018,24:00,13.87789,R,ugm-3,34.52201,R,ugm-3,55.80114,R,ugm-3
09-01-2018,01:00,6.92018,R,ugm-3,30.58645,R,ugm-3,41.19724,R,ugm-3
09-01-2018,02:00,15.38370,R,ugm-3,31.01166,R,ugm-3,54.59967,R,ugm-3
09-01-2018,03:00,8.55065,R,ugm-3,35.77759,R,ugm-3,48.88840,R,ugm-3
09-01-2018,04:00,10.30558,R,ugm-3,35.59968,R,ugm-3,51.40136,R,ugm-3
09-01-2018,05:00,26.06267,R,ugm-3,38.73898,R,ugm-3,78.70119,R,ugm-3
09-01-2018,06:00,80.65240,R,ugm-3,70.40339,R,ugm-3,194.06869,R,ugm-3
09-01-2018,07:00,85.91721,R,ugm-3,71.64015,R,ugm-3,203.37804,R,ugm-3
09-01-2018,08:00,163.54515,R,ugm-3,66.78044,R,ugm-3,317.54617,R,ugm-3
09-01-2018,09:00,153.01553,R,ugm-3,90.97851,R,ugm-3,325.59905,R,ugm-3
09-01-2018,10:00,224.48252,R,ugm-3,75.91871,R,ugm-3,420.12044,R,ugm-3
09-01-2018,11:00,166.56962,R,ugm-3,93.66916,R,ugm-3,349.07234,R,ugm-3
09-01-2018,12:00,159.13914,R,ugm-3,72.56531,R,ugm-3,316.57526,R,ugm-3
09-01-2018,13:00,176.46447,R,ugm-3,87.97795,R,ugm-3,358.55303,R,ugm-3
09-01-2018,14:00,177.62198,R,ugm-3,77.00799,R,ugm-3,349.35790,R,ugm-3
09-01-2018,15:00,184.97778,R,ugm-3,79.03650,R,ugm-3,362.66514,R,ugm-3
09-01-2018,16:00,210.33101,R,ugm-3,61.97911,R,ugm-3,384.48216,R,ugm-3
09-01-2018,17:00,196.62757,R,ugm-3,91.67188,R,ugm-3,393.16328,R,ugm-3
09-01-2018,18:00,208.20268,R,ugm-3,82.14783,R,ugm-3,401.38750,R,ugm-3
09-01-2018,19:00,158.16832,R,ugm-3,71.94071,R,ugm-3,314.46209,R,ugm-3
09-01-2018,20:00,165.33742,R,ugm-3,75.45485,R,ugm-3,328.96870,R,ugm-3
09-01-2018,21:00,122.62152,R,ugm-3,60.99398,R,ugm-3,249.01103,R,ugm-3
09-01-2018,22:00,92.63825,R,ugm-3,71.67210,R,ugm-3,213.71543,R,ugm-3
09-01-2018,23:00,62.02020,R,ugm-3,66.01838,R,ugm-3,161.11470,R,ugm-3
09-01-2018,24:00,36.06955,R,ugm-3,56.00663,R,ugm-3,111.31250,R,ugm-3
10-01-2018,01:00,19.83208,R,ugm-3,41.70272,R,ugm-3,72.11148,R,ugm-3
10-01-2018,02:00,14.10170,R,ugm-3,29.77711,R,ugm-3,51.39942,R,ugm-3
10-01-2018,03:00,12.14590,R,ugm-3,26.43670,R,ugm-3,45.06016,R,ugm-3
10-01-2018,04:00,7.17543,R,ugm-3,19.95171,R,ugm-3,30.95387,R,ugm-3
10-01-2018,05:00,23.43225,R,ugm-3,27.57789,R,ugm-3,63.50684,R,ugm-3
10-01-2018,06:00,155.61704,R,ugm-3,64.07601,R,ugm-3,302.68548,R,ugm-3
10-01-2018,07:00,265.78972,R,ugm-3,110.56761,R,ugm-3,518.10616,R,ugm-3
10-01-2018,08:00,41.96877,R,ugm-3,52.15415,R,ugm-3,116.50535,R,ugm-3
10-01-2018,09:00,41.44556,R,ugm-3,50.50064,R,ugm-3,114.04960,R,ugm-3
10-01-2018,10:00,55.53480,R,ugm-3,59.28019,R,ugm-3,144.43237,R,ugm-3
10-01-2018,11:00,54.48839,R,ugm-3,46.37862,R,ugm-3,129.92631,R,ugm-3
10-01-2018,12:00,46.15443,R,ugm-3,52.53236,R,ugm-3,123.30150,R,ugm-3
10-01-2018,13:00,61.06586,R,ugm-3,57.19573,R,ugm-3,150.82874,R,ugm-3
10-01-2018,14:00,71.90374,R,ugm-3,86.72314,R,ugm-3,196.97400,R,ugm-3
10-01-2018,15:00,51.31177,R,ugm-3,62.38591,R,ugm-3,141.06285,R,ugm-3
10-01-2018,16:00,53.70357,R,ugm-3,64.48668,R,ugm-3,146.83101,R,ugm-3
10-01-2018,17:00,88.38480,R,ugm-3,86.52403,R,ugm-3,222.04550,R,ugm-3
10-01-2018,18:00,161.44707,R,ugm-3,101.45334,R,ugm-3,349.00207,R,ugm-3
10-01-2018,19:00,212.79621,R,ugm-3,119.80689,R,ugm-3,446.08986,R,ugm-3
10-01-2018,20:00,156.51397,R,ugm-3,108.84600,R,ugm-3,348.83073,R,ugm-3
10-01-2018,21:00,75.26722,R,ugm-3,75.56927,R,ugm-3,190.97740,R,ugm-3
10-01-2018,22:00,62.67286,R,ugm-3,71.80774,R,ugm-3,167.90477,R,ugm-3
10-01-2018,23:00,82.29316,R,ugm-3,80.15903,R,ugm-3,206.34012,R,ugm-3
10-01-2018,24:00,71.23105,R,ugm-3,67.19482,R,ugm-3,176.41424,R,ugm-3
11-01-2018,01:00,69.77268,R,ugm-3,62.20961,R,ugm-3,169.19290,R,ugm-3
11-01-2018,02:00,36.75659,R,ugm-3,49.25299,R,ugm-3,105.61231,R,ugm-3
11-01-2018,03:00,27.08118,R,ugm-3,41.34027,R,ugm-3,82.86416,R,ugm-3
11-01-2018,04:00,34.41254,R,ugm-3,47.00306,R,ugm-3,99.76823,R,ugm-3
11-01-2018,05:00,45.48441,R,ugm-3,45.90255,R,ugm-3,115.64434,R,ugm-3
11-01-2018,06:00,143.33573,R,ugm-3,77.87015,R,ugm-3,297.64853,R,ugm-3
11-01-2018,07:00,269.16595,R,ugm-3,92.52189,R,ugm-3,505.23725,R,ugm-3
11-01-2018,08:00,222.22275,R,ugm-3,87.80400,R,ugm-3,428.54079,R,ugm-3
11-01-2018,09:00,243.43135,R,ugm-3,100.74281,R,ugm-3,473.99901,R,ugm-3
11-01-2018,10:00,181.78801,R,ugm-3,81.21598,R,ugm-3,359.95370,R,ugm-3
11-01-2018,11:00,112.85070,R,ugm-3,59.56683,R,ugm-3,232.60216,R,ugm-3
11-01-2018,12:00,110.75603,R,ugm-3,49.70082,R,ugm-3,219.52436,R,ugm-3
11-01-2018,13:00,100.28264,R,ugm-3,57.53619,R,ugm-3,211.30076,R,ugm-3
11-01-2018,14:00,140.19371,R,ugm-3,72.63677,R,ugm-3,287.59747,R,ugm-3
11-01-2018,15:00,126.87756,R,ugm-3,57.76166,R,ugm-3,252.30453,R,ugm-3
11-01-2018,16:00,153.69690,R,ugm-3,69.29311,R,ugm-3,304.95840,R,ugm-3
11-01-2018,17:00,120.18207,R,ugm-3,73.05346,R,ugm-3,257.33006,R,ugm-3
11-01-2018,18:00,137.38834,R,ugm-3,65.80216,R,ugm-3,276.46135,R,ugm-3
11-01-2018,19:00,155.34272,R,ugm-3,79.27628,R,ugm-3,317.46512,R,ugm-3
11-01-2018,20:00,120.03245,R,ugm-3,60.71904,R,ugm-3,244.76624,R,ugm-3
11-01-2018,21:00,82.85194,R,ugm-3,58.79258,R,ugm-3,185.83045,R,ugm-3
11-01-2018,22:00,61.30670,R,ugm-3,58.02004,R,ugm-3,152.02233,R,ugm-3
11-01-2018,23:00,51.65622,R,ugm-3,57.85485,R,ugm-3,137.05995,R,ugm-3
11-01-2018,24:00,37.62937,R,ugm-3,46.92487,R,ugm-3,104.62243,R,ugm-3
12-01-2018,01:00,28.35295,R,ugm-3,39.74880,R,ugm-3,83.22271,R,ugm-3
12-01-2018,02:00,18.26968,R,ugm-3,27.57021,R,ugm-3,55.58333,R,ugm-3
12-01-2018,03:00,24.52181,R,ugm-3,24.47482,R,ugm-3,62.07440,R,ugm-3
12-01-2018,04:00,30.84881,R,ugm-3,33.56148,R,ugm-3,80.86233,R,ugm-3
12-01-2018,05:00,65.29165,R,ugm-3,38.59840,R,ugm-3,138.71087,R,ugm-3
12-01-2018,06:00,212.31017,R,ugm-3,64.15472,R,ugm-3,389.69244,R,ugm-3
12-01-2018,07:00,427.39075,R,ugm-3,109.27105,R,ugm-3,764.59439,R,ugm-3
12-01-2018,08:00,359.96514,R,ugm-3,110.14998,R,ugm-3,662.08883,R,ugm-3
12-01-2018,09:00,343.71710,R,ugm-3,99.02930,R,ugm-3,626.05484,R,ugm-3
12-01-2018,10:00,222.00658,R,ugm-3,90.28932,R,ugm-3,430.69467,R,ugm-3
12-01-2018,11:00,174.27329,R,ugm-3,67.88363,R,ugm-3,335.09895,R,ugm-3
12-01-2018,12:00,200.10543,R,ugm-3,86.29477,R,ugm-3,393.11881,R,ugm-3
12-01-2018,13:00,194.15280,R,ugm-3,93.82302,R,ugm-3,391.51984,R,ugm-3
12-01-2018,14:00,170.79157,R,ugm-3,89.49745,R,ugm-3,351.37421,R,ugm-3
12-01-2018,15:00,180.30079,R,ugm-3,102.15649,R,ugm-3,378.61385,R,ugm-3
12-01-2018,16:00,225.75037,R,ugm-3,89.91691,R,ugm-3,436.06264,R,ugm-3
12-01-2018,17:00,149.97612,R,ugm-3,88.34957,R,ugm-3,318.30974,R,ugm-3
12-01-2018,18:00,107.33438,R,ugm-3,83.03523,R,ugm-3,247.61231,R,ugm-3
12-01-2018,19:00,117.29285,R,ugm-3,83.64129,R,ugm-3,263.48783,R,ugm-3
12-01-2018,20:00,107.25950,R,ugm-3,86.86194,R,ugm-3,251.32421,R,ugm-3
12-01-2018,21:00,55.18342,R,ugm-3,80.65183,R,ugm-3,165.26523,R,ugm-3
12-01-2018,22:00,55.37061,R,ugm-3,67.05907,R,ugm-3,151.95949,R,ugm-3
12-01-2018,23:00,32.23401,R,ugm-3,49.88283,R,ugm-3,99.30761,R,ugm-3
12-01-2018,24:00,18.19481,R,ugm-3,36.57454,R,ugm-3,64.47286,R,ugm-3
13-01-2018,01:00,8.49338,R,ugm-3,22.22920,R,ugm-3,35.25221,R,ugm-3
13-01-2018,02:00,17.78614,R,ugm-3,27.09131,R,ugm-3,54.36302,R,ugm-3
13-01-2018,03:00,9.40517,R,ugm-3,22.75365,R,ugm-3,37.17471,R,ugm-3
13-01-2018,04:00,4.87120,R,ugm-3,17.65669,R,ugm-3,25.12576,R,ugm-3
13-01-2018,05:00,8.20611,R,ugm-3,16.25500,R,ugm-3,28.83752,R,ugm-3
13-01-2018,06:00,17.68622,R,ugm-3,28.95764,R,ugm-3,56.07614,R,ugm-3
13-01-2018,07:00,25.77991,R,ugm-3,40.87379,R,ugm-3,80.40244,R,ugm-3
13-01-2018,08:00,43.39119,R,ugm-3,48.58945,R,ugm-3,115.12168,R,ugm-3
13-01-2018,09:00,42.00477,R,ugm-3,56.53987,R,ugm-3,120.94629,R,ugm-3
13-01-2018,10:00,47.88769,R,ugm-3,58.25508,R,ugm-3,131.68184,R,ugm-3
13-01-2018,11:00,50.58559,R,ugm-3,48.17954,R,ugm-3,125.74303,R,ugm-3
13-01-2018,12:00,37.43333,R,ugm-3,48.87358,R,ugm-3,106.27056,R,ugm-3
13-01-2018,13:00,49.91111,R,ugm-3,53.32521,R,ugm-3,129.85451,R,ugm-3
13-01-2018,14:00,39.90641,R,ugm-3,38.62884,R,ugm-3,99.81780,R,ugm-3
13-01-2018,15:00,47.40057,R,ugm-3,58.03122,R,ugm-3,130.71107,R,ugm-3
13-01-2018,16:00,44.92749,R,ugm-3,48.91770,R,ugm-3,117.80557,R,ugm-3
13-01-2018,17:00,47.73780,R,ugm-3,53.74526,R,ugm-3,126.94221,R,ugm-3
13-01-2018,18:00,36.64645,R,ugm-3,52.99243,R,ugm-3,109.18286,R,ugm-3
13-01-2018,19:00,34.36073,R,ugm-3,45.19055,R,ugm-3,97.87627,R,ugm-3
13-01-2018,20:00,48.44975,R,ugm-3,52.59653,R,ugm-3,126.88511,R,ugm-3
13-01-2018,21:00,14.61361,R,ugm-3,36.69542,R,ugm-3,59.10265,R,ugm-3
13-01-2018,22:00,18.43564,R,ugm-3,30.83507,R,ugm-3,59.10265,R,ugm-3
13-01-2018,23:00,12.44031,R,ugm-3,31.80480,R,ugm-3,50.87967,R,ugm-3
13-01-2018,24:00,16.44968,R,ugm-3,35.02223,R,ugm-3,60.24473,R,ugm-3
14-01-2018,01:00,19.05190,R,ugm-3,35.57907,R,ugm-3,64.79157,R,ugm-3
14-01-2018,02:00,6.90069,R,ugm-3,23.29953,R,ugm-3,33.88043,R,ugm-3
14-01-2018,03:00,15.30153,R,ugm-3,26.84472,R,ugm-3,50.30673,R,ugm-3
14-01-2018,04:00,11.47614,R,ugm-3,21.06145,R,ugm-3,38.65796,R,ugm-3
14-01-2018,05:00,6.26312,R,ugm-3,19.11891,R,ugm-3,28.72223,R,ugm-3
14-01-2018,06:00,7.27573,R,ugm-3,19.73615,R,ugm-3,30.89210,R,ugm-3
14-01-2018,07:00,22.42724,R,ugm-3,34.36269,R,ugm-3,68.75063,R,ugm-3
14-01-2018,08:00,34.24091,R,ugm-3,32.46556,R,ugm-3,84.96756,R,ugm-3
14-01-2018,09:00,119.41190,R,ugm-3,66.32521,R,ugm-3,249.42090,R,ugm-3
14-01-2018,10:00,148.96484,R,ugm-3,87.70629,R,ugm-3,316.11587,R,ugm-3
14-01-2018,11:00,126.80013,R,ugm-3,86.17435,R,ugm-3,280.59851,R,ugm-3
14-01-2018,12:00,157.21566,R,ugm-3,94.92665,R,ugm-3,335.98731,R,ugm-3
14-01-2018,13:00,135.31348,R,ugm-3,79.11643,R,ugm-3,286.59421,R,ugm-3
14-01-2018,14:00,87.45871,R,ugm-3,52.50737,R,ugm-3,186.60886,R,ugm-3
14-01-2018,15:00,50.25501,R,ugm-3,49.36690,R,ugm-3,126.42351,R,ugm-3
14-01-2018,16:00,49.65495,R,ugm-3,54.74093,R,ugm-3,130.87745,R,ugm-3
14-01-2018,17:00,61.91867,R,ugm-3,71.11156,R,ugm-3,166.05219,R,ugm-3
14-01-2018,18:00,47.81726,R,ugm-3,58.35809,R,ugm-3,131.67688,R,ugm-3
14-01-2018,19:00,34.39093,R,ugm-3,48.39537,R,ugm-3,101.12738,R,ugm-3
14-01-2018,20:00,18.11431,R,ugm-3,34.40904,R,ugm-3,62.18392,R,ugm-3
14-01-2018,21:00,18.71436,R,ugm-3,29.60603,R,ugm-3,58.30099,R,ugm-3
14-01-2018,22:00,16.83918,R,ugm-3,29.05517,R,ugm-3,54.87488,R,ugm-3
14-01-2018,23:00,7.31323,R,ugm-3,18.87922,R,ugm-3,30.09268,R,ugm-3
14-01-2018,24:00,3.86288,R,ugm-3,13.66293,R,ugm-3,19.58594,R,ugm-3
15-01-2018,01:00,4.60450,R,ugm-3,15.09455,R,ugm-3,22.15469,R,ugm-3
15-01-2018,02:00,1.35132,R,ugm-3,12.39326,R,ugm-3,14.46526,R,ugm-3
15-01-2018,03:00,0.86334,R,ugm-3,7.24118,R,ugm-3,8.56496,R,ugm-3
15-01-2018,04:00,2.40235,R,ugm-3,6.30890,R,ugm-3,9.99245,R,ugm-3
15-01-2018,05:00,2.96540,R,ugm-3,5.84527,R,ugm-3,10.39215,R,ugm-3
15-01-2018,06:00,9.90968,R,ugm-3,13.24102,R,ugm-3,28.43565,R,ugm-3
15-01-2018,07:00,10.77302,R,ugm-3,20.31090,R,ugm-3,36.82931,R,ugm-3
15-01-2018,08:00,7.61994,R,ugm-3,16.18090,R,ugm-3,27.86466,R,ugm-3
15-01-2018,09:00,6.45631,R,ugm-3,17.85092,R,ugm-3,27.75046,R,ugm-3
15-01-2018,10:00,9.90968,R,ugm-3,21.40628,R,ugm-3,36.60091,R,ugm-3
15-01-2018,11:00,13.10030,R,ugm-3,17.71316,R,ugm-3,37.80000,R,ugm-3